Weather History for KLSB - March, 2013

Change the Weather History Date:

Sunday, March 24, 2013

  Actual Average Record
Temperature  
Mean Temperature 50 °F -  
Max Temperature 68 °F 72 °F 77 °F (2015)
Min Temperature 32 °F 31 °F 32 °F (2013)
Degree Days  
Heating Degree Days 15    
Moisture  
Dew Point -1 °F    
Average Humidity 14    
Maximum Humidity 25    
Minimum Humidity 7    
Precipitation  
Precipitation 0.00 in - - ()
Sea Level Pressure  
Sea Level Pressure 30.00 in    
Wind  
Wind Speed 9 mph (West)    
Max Wind Speed 20 mph    
Max Gust Speed 26 mph    
Visibility 10 miles    
Events      
Averages and records for this station are not official NWS values.
T = Trace of Precipitation, MM = Missing Value Source: NWS Daily Summary

Daily Weather History Graph

Daily Weather History Graph

Search for Another Location

Airport or City:

Trip Planner

Search our weather history database for the weather conditions in past years. The results will help you decide how hot, cold, wet, or windy it might be!

Date:

Astronomy

Mar. 24, 2013 Rise Set
Actual Time 7:12 AM MDT 7:29 PM MDT
Civil Twilight 6:48 AM MDT 7:53 PM MDT
Nautical Twilight 6:19 AM MDT 8:22 PM MDT
Astronomical Twilight 5:50 AM MDT 8:51 PM MDT
Moon 5:07 PM MDT (3/24) 5:16 AM MDT (3/24)
Length of Visible Light 13h 05m
Length of Day
12h 16m
Waxing Gibbous, 92% of the Moon is Illuminated
Mar 24
Waxing Gibbous
Mar 27
Full
Apr 2
Last Quarter
Apr 10
New
Apr 18
First Quarter

Hourly Weather History & Observations

Time (MDT) Temp. Windchill Dew Point Humidity Pressure Visibility Wind Dir Wind Speed Gust Speed Precip Events Conditions
12:15 AM 44.6 °F 40.7 °F 3.2 °F 18% 30.02 in 10.0 mi WNW 6.9 mph - N/A   Clear
12:35 AM 42.8 °F 38.6 °F 3.2 °F 19% 30.03 in 10.0 mi WNW 6.9 mph - N/A   Clear
12:55 AM 41.0 °F 35.8 °F 3.2 °F 21% 30.03 in 10.0 mi West 8.1 mph - N/A   Clear
1:35 AM 41.0 °F 39.0 °F 3.2 °F 21% 30.02 in 10.0 mi NW 3.5 mph - N/A   Clear
1:55 AM 39.2 °F 34.2 °F 1.4 °F 21% 30.02 in 10.0 mi West 6.9 mph - N/A   Clear
2:15 AM 41.0 °F 37.1 °F 1.4 °F 19% 30.02 in 10.0 mi WNW 5.8 mph - N/A   Clear
2:35 AM 41.0 °F 36.4 °F 1.4 °F 19% 30.03 in 10.0 mi NW 6.9 mph - N/A   Clear
2:55 AM 39.2 °F 35.9 °F 1.4 °F 21% 30.03 in 10.0 mi NW 4.6 mph - N/A   Clear
3:15 AM 37.4 °F - 1.4 °F 22% 30.03 in 10.0 mi Calm Calm - N/A   Clear
3:35 AM 33.8 °F 30.8 °F 1.4 °F 25% 30.02 in 10.0 mi SE 3.5 mph - N/A   Clear
3:55 AM 35.6 °F 32.8 °F 1.4 °F 24% 30.02 in 10.0 mi South 3.5 mph - N/A   Clear
4:15 AM 33.8 °F - -0.4 °F 23% 30.02 in 10.0 mi Calm Calm - N/A   Clear
4:35 AM 33.8 °F - 1.4 °F 25% 30.02 in 10.0 mi Calm Calm - N/A   Clear
4:55 AM 35.6 °F - 1.4 °F 24% 30.02 in 10.0 mi Calm Calm - N/A   Clear
5:15 AM 32.0 °F 24.8 °F -0.4 °F 25% 30.03 in 10.0 mi South 8.1 mph - N/A   Clear
5:35 AM 33.8 °F 26.4 °F 1.4 °F 25% 30.04 in 10.0 mi SSE 9.2 mph - N/A   Clear
6:15 AM 33.8 °F 25.8 °F -5.8 °F 18% 30.06 in 10.0 mi South 10.4 mph - N/A   Clear
6:35 AM 33.8 °F 25.8 °F -7.6 °F 17% 30.06 in 10.0 mi SSE 10.4 mph - N/A   Clear
6:55 AM 33.8 °F 25.3 °F -7.6 °F 17% 30.07 in 10.0 mi SSE 11.5 mph - N/A   Clear
7:15 AM 33.8 °F 25.3 °F -7.6 °F 17% 30.08 in 10.0 mi SSE 11.5 mph - N/A   Clear
7:35 AM 33.8 °F 24.3 °F -7.6 °F 17% 30.08 in 10.0 mi SSE 13.8 mph - N/A   Clear
7:55 AM 35.6 °F 27.5 °F -9.4 °F 14% 30.10 in 10.0 mi SSE 11.5 mph - N/A   Clear
8:15 AM 37.4 °F 28.5 °F -9.4 °F 13% 30.10 in 10.0 mi SSE 15.0 mph 18.4 mph N/A   Clear
8:35 AM 39.2 °F 31.2 °F -9.4 °F 12% 30.10 in 10.0 mi SSE 13.8 mph 17.3 mph N/A   Clear
8:55 AM 41.0 °F 31.9 °F -9.4 °F 12% 30.10 in 10.0 mi SSE 19.6 mph 24.2 mph N/A   Clear
9:15 AM 42.8 °F 35.4 °F -7.6 °F 12% 30.10 in 10.0 mi SSE 15.0 mph 20.7 mph N/A   Clear
9:35 AM 44.6 °F 37.4 °F -7.6 °F 11% 30.10 in 10.0 mi SE 16.1 mph 23.0 mph N/A   Clear
9:55 AM 46.4 °F 39.0 °F -9.4 °F 9% 30.10 in 10.0 mi SE 19.6 mph 26.5 mph N/A   Clear
10:15 AM 48.2 °F - -7.6 °F 10% 30.10 in 10.0 mi SE 15.0 mph 23.0 mph N/A   Clear
10:35 AM 50.0 °F - -7.6 °F 9% 30.10 in 10.0 mi SE 16.1 mph 24.2 mph N/A   Clear
10:55 AM 51.8 °F - -7.6 °F 8% 30.09 in 10.0 mi SE 13.8 mph 20.7 mph N/A   Clear
11:15 AM 53.6 °F - -5.8 °F 9% 30.08 in 10.0 mi SE 12.7 mph 19.6 mph N/A   Clear
11:35 AM 55.4 °F - -5.8 °F 8% 30.08 in 10.0 mi SE 11.5 mph 19.6 mph N/A   Clear
11:55 AM 55.4 °F - -5.8 °F 8% 30.07 in 10.0 mi SE 9.2 mph - N/A   Clear
12:15 PM 55.4 °F - -5.8 °F 8% 30.06 in 10.0 mi ESE 8.1 mph - N/A   Clear
12:35 PM 59.0 °F - -4.0 °F 8% 30.04 in 10.0 mi SE 5.8 mph - N/A   Clear
12:55 PM 59.0 °F - -4.0 °F 8% 30.03 in 10.0 mi WSW 4.6 mph - N/A   Clear
1:15 PM 59.0 °F - -4.0 °F 8% 30.02 in 10.0 mi Calm Calm - N/A   Clear
1:35 PM 60.8 °F - -2.2 °F 8% 30.00 in 10.0 mi Calm Calm - N/A   Clear
1:55 PM 62.6 °F - -0.4 °F 8% 29.99 in 10.0 mi Calm Calm - N/A   Clear
2:15 PM 64.4 °F - -0.4 °F 7% 29.97 in 10.0 mi WNW 6.9 mph - N/A   Clear
2:35 PM 64.4 °F - -0.4 °F 7% 29.96 in 10.0 mi West 8.1 mph - N/A   Clear
2:55 PM 66.2 °F - 1.4 °F 8% 29.95 in 10.0 mi West 10.4 mph 19.6 mph N/A   Clear
3:15 PM 64.4 °F - -0.4 °F 7% 29.94 in 10.0 mi West 9.2 mph 19.6 mph N/A   Clear
3:35 PM 68.0 °F - 1.4 °F 7% 29.92 in 10.0 mi West 16.1 mph 21.9 mph N/A   Clear
3:55 PM 68.0 °F - 1.4 °F 7% 29.91 in 10.0 mi WNW 16.1 mph 26.5 mph N/A   Clear
4:15 PM 68.0 °F - -0.4 °F 7% 29.91 in 10.0 mi WNW 18.4 mph 26.5 mph N/A   Clear
4:35 PM 68.0 °F - -0.4 °F 7% 29.90 in 10.0 mi WNW 19.6 mph 26.5 mph N/A   Clear
4:55 PM 68.0 °F - -0.4 °F 7% 29.90 in 10.0 mi West 13.8 mph 26.5 mph N/A   Clear
5:15 PM 68.0 °F - -0.4 °F 7% 29.89 in 10.0 mi WNW 15.0 mph 19.6 mph N/A   Clear
5:35 PM 68.0 °F - -0.4 °F 7% 29.89 in 10.0 mi NW 11.5 mph 21.9 mph N/A   Clear
5:55 PM 68.0 °F - -0.4 °F 7% 29.89 in 10.0 mi WNW 9.2 mph 25.3 mph N/A   Clear
6:15 PM 66.2 °F - 1.4 °F 8% 29.89 in 10.0 mi WNW 17.3 mph 26.5 mph N/A   Clear
6:35 PM 64.4 °F - 1.4 °F 8% 29.89 in 10.0 mi WNW 16.1 mph 23.0 mph N/A   Clear
6:55 PM 64.4 °F - 3.2 °F 9% 29.89 in 10.0 mi WNW 17.3 mph 24.2 mph N/A   Clear
7:15 PM 62.6 °F - 3.2 °F 9% 29.90 in 10.0 mi WNW 17.3 mph 20.7 mph N/A   Clear
7:35 PM 60.8 °F - 5.0 °F 11% 29.91 in 10.0 mi NW 12.7 mph - N/A   Clear
7:55 PM 59.0 °F - 5.0 °F 12% 29.91 in 10.0 mi NW 9.2 mph - N/A   Clear
8:15 PM 57.2 °F - 5.0 °F 12% 29.92 in 10.0 mi NW 10.4 mph - N/A   Clear
8:35 PM 55.4 °F - 5.0 °F 13% 29.93 in 10.0 mi WNW 6.9 mph - N/A   Clear
8:55 PM 53.6 °F - 5.0 °F 14% 29.94 in 10.0 mi WNW 6.9 mph - N/A   Clear
9:15 PM 53.6 °F - 6.8 °F 15% 29.94 in 10.0 mi WNW 8.1 mph - N/A   Clear
9:35 PM 51.8 °F - 8.6 °F 18% 29.94 in 10.0 mi West 9.2 mph - N/A   Clear
9:55 PM 53.6 °F - 6.8 °F 15% 29.95 in 10.0 mi WNW 9.2 mph - N/A   Clear
10:15 PM 51.8 °F - 6.8 °F 16% 29.96 in 10.0 mi WNW 5.8 mph - N/A   Clear
10:35 PM 50.0 °F - 6.8 °F 17% 29.97 in 10.0 mi NNW 5.8 mph - N/A   Clear
10:55 PM 48.2 °F - 6.8 °F 19% 29.97 in 10.0 mi NW 8.1 mph - N/A   Clear
11:15 PM 46.4 °F 42.9 °F 6.8 °F 20% 29.97 in 10.0 mi WNW 6.9 mph - N/A   Clear
11:35 PM 46.4 °F 43.5 °F 6.8 °F 20% 29.98 in 10.0 mi NNW 5.8 mph - N/A   Clear
11:55 PM 44.6 °F 40.2 °F 6.8 °F 21% 29.98 in 10.0 mi WNW 8.1 mph - N/A   Clear